Location: Barcelona
(41.3829°N, 2.1774°E)
Time: 20:59:14
(UTC+00:00)

ISS - Pass Details

Date: 10 July 2025
Orbit: 413 x 417 km, 51.6° (Epoch: 13 July)

Event Time Altitude Azimuth Distance (km) Brightness Sun altitude
Rises 00:48:04 0° 309° (NW) 2,357 0.4 -25.3°
Reaches altitude 10° 00:50:34 10° 327° (NNW) 1,494 -0.4 -25.2°
Maximum altitude 00:53:05 19° 16° (NNE) 1,049 -0.9 -25.1°
Drops below altitude 10° 00:55:36 10° 65° (ENE) 1,493 -0.5 -24.9°
Sets 00:58:06 0° 84° (E) 2,355 0.3 -24.8°
